EW6767 Weather Reports


time (UTC)temp
C
wind
direction
speed
KPH
gust
KPH
rain 1hr
cm
rain 24hr
cm
rain mn
cm
humidity
%
barometer
mb
20260507093045 3 89 0.0 0.0 0.00 0.00 0.00 93 1032.6
20260507091544 3 89 0.0 0.0 0.00 0.00 0.00 93 1032.5
20260507090045 3 89 0.0 0.0 0.00 0.00 0.00 93 1032.4
20260507084543 3 89 0.0 0.0 0.00 0.00 0.00 93 1032.4
20260507083041 3 89 0.0 0.0 0.00 0.00 0.00 93 1032.2
20260507081542 3 89 0.0 0.0 0.00 0.00 0.00 93 1032.2
20260507080040 3 89 0.0 0.0 0.00 0.00 0.00 93 1032.1
20260507074537 4 89 0.0 0.0 0.00 0.23 0.00 93 1032.1
20260507073040 4 89 0.0 0.0 0.00 0.23 0.00 93 1032.1
20260507071538 4 89 0.0 0.0 0.00 0.23 0.00 93 1032.2
20260507070044 4 89 0.0 0.0 0.00 0.23 0.00 93 1032.1
20260507064541 4 89 0.0 0.0 0.00 0.36 0.00 93 1032.3
20260507063036 4 89 0.0 0.0 0.00 0.36 0.00 93 1032.3
20260507061532 5 89 0.0 0.0 0.00 0.36 0.00 93 1032.4
20260507060034 5 89 0.0 0.0 0.00 0.36 0.00 93 1032.3
20260507054528 5 89 0.0 0.0 0.00 0.69 0.00 93 1032.3
20260507053027 5 89 0.0 0.0 0.00 0.69 0.00 93 1032.4
20260507051525 5 89 0.0 0.0 0.00 0.69 0.00 92 1032.5
20260507050029 6 89 0.0 0.0 0.00 1.12 0.00 92 1032.6
20260507044519 6 89 0.0 0.0 0.00 1.12 0.00 92 1032.5
20260507043019 6 89 0.0 0.0 0.00 1.12 0.00 92 1032.3
20260507041518 6 89 0.0 0.0 0.00 1.12 0.00 91 1032.3
20260507040016 6 89 0.0 0.0 0.00 1.30 1.12 91 1032.2
20260507034519 7 89 0.0 0.0 0.00 1.30 1.12 91 1032.2
20260507033014 7 89 0.0 0.0 0.00 1.30 1.12 91 1032.2
20260507031514 7 89 0.0 0.0 0.00 1.30 1.12 91 1032.2
20260507030014 7 89 0.0 0.0 0.00 1.55 1.12 90 1032.3
20260507024513 7 89 0.0 0.0 0.00 1.55 1.12 89 1032.3
20260507023012 7 89 0.0 0.0 0.00 1.55 1.12 88 1032.4
20260507021513 8 89 0.0 0.0 0.00 1.55 1.12 87 1032.2
20260507020010 8 89 0.0 0.0 0.00 1.80 1.12 86 1031.9
20260507014510 9 89 0.0 0.0 0.00 1.80 1.12 84 1031.7
20260507013008 10 89 0.0 0.0 0.00 1.80 1.12 85 1031.7
20260507011518 10 89 0.0 0.0 0.00 1.80 1.12 85 1031.6
20260507010006 10 89 0.0 0.0 0.00 2.13 1.12 83 1031.6
20260507004503 11 89 0.0 0.0 0.00 2.13 1.12 81 1031.5
20260507003001 11 89 0.0 0.0 0.00 2.13 1.12 78 1031.0
20260507001502 12 89 0.0 0.0 0.00 2.13 1.12 75 1031.0
20260507000001 12 89 0.0 0.0 0.00 2.29 1.12 74 1030.8
20260506234607 13 89 0.0 0.0 0.00 2.29 1.12 71 1030.9
20260506233101 13 89 0.0 1.6 0.00 2.29 1.12 59 1030.5
20260506231600 13 156 0.0 1.6 0.00 2.29 1.12 57 1030.7
20260506230104 14 112 0.0 3.2 0.00 2.29 1.12 54 1030.8
20260506224602 14 111 0.0 3.2 0.00 2.57 1.12 53 1030.7
20260506223059 14 129 0.0 1.6 0.00 2.57 1.12 52 1031.2
20260506221558 14 135 0.0 1.6 0.00 2.57 1.12 52 1031.0
20260506220101 14 217 0.0 3.2 0.00 2.57 1.12 52 1031.2
20260506214558 15 94 0.0 3.2 0.00 2.74 1.12 54 1031.0
20260506213054 15 221 0.0 3.2 0.00 2.74 1.12 54 1030.8
20260506211553 15 108 0.0 4.8 0.00 2.74 1.12 53 1030.7
20260506210053 15 63 0.0 3.2 0.00 2.74 1.12 52 1030.6
20260506204552 15 172 0.0 3.2 0.00 2.87 1.12 53 1030.6
20260506203051 15 75 0.0 3.2 0.00 2.87 1.12 50 1030.7
20260506201555 15 83 0.0 3.2 0.00 2.87 1.12 50 1030.6
20260506200051 15 23 0.0 4.8 0.00 2.87 1.12 53 1030.6
20260506194550 15 167 0.0 6.4 0.00 3.05 1.12 51 1030.5
20260506193049 15 150 0.0 6.4 0.00 3.05 1.12 50 1030.3
20260506191550 15 237 0.0 9.7 0.00 3.05 1.12 52 1030.3
20260506190052 15 86 1.6 8.0 0.00 3.05 1.12 53 1030.3
20260506184551 15 86 1.6 9.7 0.00 3.05 1.12 49 1030.3
20260506183049 16 231 0.0 8.0 0.00 3.05 1.12 50 1030.2
20260506181546 16 37 1.6 6.4 0.00 3.05 1.12 52 1030.1
20260506180047 15 63 1.6 9.7 0.00 3.05 1.12 54 1030.3
20260506174544 15 4 0.0 8.0 0.00 3.05 1.12 54 1030.6
20260506173120 16 67 1.6 8.0 0.00 3.05 1.12 55 1030.4
20260506171542 16 129 0.0 6.4 0.00 3.05 1.12 52 1030.6
20260506170041 16 81 1.6 4.8 0.00 3.05 1.12 55 1030.6
20260506164538 15 146 1.6 8.0 0.00 3.05 1.12 54 1030.7
20260506163038 15 72 1.6 6.4 0.00 3.05 1.12 59 1030.4
20260506161533 15 47 0.0 6.4 0.00 3.05 1.12 59 1030.4
20260506160031 14 195 1.6 8.0 0.00 3.05 1.12 60 1030.7
20260506154528 14 202 1.6 6.4 0.00 3.05 1.12 62 1030.5
20260506153024 13 65 0.0 8.0 0.00 3.05 1.12 63 1030.6
20260506151525 12 68 0.0 8.0 0.00 3.05 1.12 63 1030.3
20260506150018 12 135 0.0 8.0 0.00 3.05 1.12 66 1029.7
20260506144515 12 63 1.6 6.4 0.00 3.05 1.12 68 1029.5
20260506143022 11 64 0.0 3.2 0.00 3.05 1.12 74 1029.5
20260506141507 11 164 0.0 6.4 0.00 3.05 1.12 79 1029.5
20260506140005 10 245 0.0 4.8 0.00 3.05 1.12 84 1029.5
20260506134504 9 60 0.0 6.4 0.00 3.05 1.12 87 1029.7
20260506133100 8 82 0.0 1.6 0.00 3.05 1.12 93 1029.4
20260506131602 8 141 0.0 3.2 0.00 3.05 1.12 93 1028.9
20260506130131 8 182 1.6 6.4 0.00 3.05 1.12 93 1029.1
20260506124600 7 54 0.0 4.8 0.00 3.05 1.12 93 1028.7
20260506123054 7 163 0.0 3.2 0.00 3.05 1.12 94 1028.6
20260506121553 7 95 0.0 3.2 0.00 3.05 1.12 94 1028.6
20260506120051 7 67 0.0 3.2 0.00 3.05 1.12 94 1028.1
20260506114550 7 56 0.0 1.6 0.00 3.05 1.12 94 1028.0
20260506113053 6 61 0.0 3.2 0.00 3.05 1.12 94 1027.2
20260506111547 6 49 0.0 1.6 0.00 3.05 1.12 94 1027.3
20260506110054 6 89 0.0 1.6 0.00 3.05 1.12 94 1027.5
20260506104551 6 124 0.0 1.6 0.00 3.17 1.12 94 1027.0
20260506103048 6 245 0.0 6.4 0.00 3.17 1.12 94 1026.2
20260506101551 6 85 0.0 3.2 0.00 3.17 1.12 94 1025.8
20260506100058 6 81 0.0 3.2 0.00 3.17 1.12 94 1026.5
20260506094538 6 205 0.0 3.2 0.00 3.43 1.12 94 1026.4